Location: Quispamsis
(45.4447°N, 65.9414°W)
Time: 06:19:58
(UTC-03:00)

Daily predictions for brighter satellites

Satellite Brightness Start Highest point End
(mag) Time Altitude Azimuth Time Altitude Azimuth Time Altitude Azimuth
Cosmos 1844 Rocket 3.0 20:03:15 10° SSW 20:08:55 77° WNW 20:14:34 10° NNE
CZ-2D R/B 4.2 20:06:13 10° SE 20:09:36 29° ENE 20:12:59 10° N
Cosmos 1805 4.2 20:10:24 10° SSE 20:13:42 27° E 20:17:02 10° NNE
Cosmos 1378 3.4 20:11:00 10° NNW 20:14:47 75° W 20:18:30 10° S
ALOS 2.3 20:11:04 10° SSE 20:15:44 77° ENE 20:20:25 10° N
Meteor 1-22 Rocket 4.4 20:10:07 10° S 20:15:56 68° E 20:21:56 10° NNE
COSMOS 2487 3.9 20:13:11 10° N 20:16:01 21° ENE 20:18:50 10° ESE
ASTRO F (AKARI) 4.4 20:12:59 10° NNE 20:16:08 79° WNW 20:19:19 10° SSW
Cosmos 2298 Rocket 4.3 20:10:51 10° SSW 20:16:09 75° WNW 20:21:31 10° NNE
COSMO-SKYMED 1 4.3 20:13:37 10° N 20:17:39 38° WNW 20:21:40 10° SW
Cosmos 1833 Rocket 3.4 20:12:56 10° NNW 20:18:05 35° NE 20:23:13 10° ESE
Resurs 1-3 3.9 20:15:04 10° SE 20:19:15 46° ENE 20:23:28 10° N
Cosmos 1437 Rocket 3.3 20:18:09 10° SSW 20:22:09 69° W 20:26:16 10° N
FENGYUN 3A 3.7 20:16:58 10° SSE 20:22:22 85° ENE 20:27:48 10° NNW
Cosmos 2278 Rocket 2.2 20:20:21 10° SSW 20:25:57 65° ESE 20:31:36 10° NNE
Meteor 1-4 Rocket 3.4 20:23:05 10° SSE 20:26:01 26° E 20:28:58 10° NE
Cosmos 1470 4.3 20:27:13 10° SE 20:29:48 17° E 20:32:22 10° NE
USA 215 4.3 20:26:23 10° ENE 20:31:15 22° ESE 20:36:04 10° S
SJ-6B 3.7 20:29:04 10° S 20:32:41 50° W 20:36:21 10° NNW
Cosmos 1340 Rocket 4.2 20:31:11 10° NNE 20:34:14 20° ENE 20:36:29 13° ESE
Cosmos 1544 3.3 20:30:48 10° SSE 20:34:16 44° E 20:37:48 10° NNE
ATLAS 5 CENTAUR R/B 3.0 20:33:55 10° SSE 20:37:24 21° ESE 20:41:05 10° ENE
Cosmos 158 Rocket 4.4 20:33:05 10° N 20:37:59 43° ENE 20:42:53 10° SE
Cosmos 1934 Rocket 4.0 20:32:04 10° S 20:38:12 84° W 20:44:19 10° N
CZ-4B DEB 3.9 20:39:29 16° ESE 20:41:14 25° ENE 20:43:51 10° NNE
Okean 3 Rocket 3.5 20:37:19 10° N 20:41:44 82° E 20:46:09 10° S
Cosmos 2297 4.1 20:36:33 10° S 20:41:52 41° ESE 20:47:13 10° NE
Cosmos 1867 4.0 20:40:06 10° S 20:45:09 40° ESE 20:50:14 10° NE
ISS -1.6 20:44:57 10° SSE 20:45:40 12° SSE 20:45:40 12° SSE
H-2A R/B 3.1 20:44:33 10° S 20:48:26 71° WSW 20:52:24 10° NNW
Spot 2 Rocket 3.6 20:43:54 10° SSE 20:49:01 83° WSW 20:54:10 10° NNW
Tiangong 1 3.7 20:51:23 10° SW 20:52:12 11° SSW 20:53:01 10° SSW
Cosmos 2082 Rocket 2.2 20:48:18 10° NNW 20:54:01 69° ENE 20:59:16 12° SE
Abrixas 3.4 20:51:30 10° W 20:54:10 37° SSW 20:55:43 20° SSE
Helios 1B rocket 2.7 20:51:30 10° NNE 20:55:28 43° E 20:59:24 10° S
Cosmos 1076 Rocket 3.4 20:51:20 10° N 20:55:36 75° E 20:59:49 10° SSE
Cosmos 1758 3.2 20:53:54 10° S 20:57:51 76° E 21:01:52 10° NNE
Lacrosse 5 2.1 20:53:59 10° WSW 20:59:04 72° NW 21:04:08 10° NE
Cosmos 1953 2.2 21:01:47 10° S 21:05:50 85° E 21:09:56 10° N
USA 267 4.2 21:00:49 13° ENE 21:06:02 39° NNE 21:11:58 10° NW
Lacrosse 4 Rocket 4.0 21:03:23 10° W 21:06:31 21° NW 21:09:40 10° N
Envisat 3.1 21:02:47 14° SSE 21:07:05 57° ENE 21:12:04 10° N
SPOT 5 4.5 21:05:48 19° E 21:07:17 21° ENE 21:11:09 10° NNE
GP-B 3.0 21:04:45 10° SSE 21:09:10 69° E 21:13:36 10° N
USA 186 1.3 21:08:21 26° S 21:09:21 58° W 21:11:33 10° NNW
Cosmos 1766 Rocket 3.5 21:06:31 10° N 21:11:02 79° E 21:15:22 11° SSE
Helios 1A 2.9 21:07:01 10° SSE 21:11:11 87° WSW 21:15:24 10° NNW
Cosmos 1939 Rocket 3.2 21:09:38 25° SE 21:11:45 49° ENE 21:15:47 10° N
H-2A R/B 4.0 21:12:13 13° ENE 21:12:59 14° NE 21:15:30 10° NNE
CZ-3 Stage 3 4.3 20:36:20 10° WSW 21:14:31 43° SSW 21:20:18 20° SE
Cosmos 1271 Rocket 2.9 21:11:14 10° S 21:15:07 51° E 21:19:03 10° NNE
Resurs 01 Rocket 3.0 21:10:59 10° SSW 21:15:07 40° W 21:19:19 10° NNW
CZ-4B DEB 4.5 21:12:44 18° SSE 21:15:19 88° ENE 21:18:56 10° NNW
Cosmos 1125 Rocket 3.4 21:10:57 10° SSW 21:16:10 87° ESE 21:21:25 10° NNE
Cosmos 1048 Rocket 4.1 21:12:22 10° NNW 21:17:31 76° WSW 21:22:08 13° SSE
Geosat 3.9 21:13:22 10° NNE 21:18:26 82° ESE 21:23:28 10° SSW
Cosmos 1184 Rocket 3.7 21:18:55 10° N 21:21:45 34° ENE 21:21:45 34° ENE
Cosmos 2100 Rocket 4.0 21:17:32 10° S 21:23:48 68° E 21:30:08 10° NNE
Cosmos-2242 2.8 21:19:37 10° S 21:23:50 72° E 21:28:07 10° NNE
ERS-1 Rocket 3.3 21:23:22 31° ESE 21:25:18 47° ENE 21:30:07 10° N
Lacrosse 5 rocket 1.1 21:21:49 10° NW 21:25:47 73° NE 21:26:41 49° ESE
Fregat R/B Cluster 11 4.0 21:23:22 10° SW 21:28:46 86° NW 21:32:07 10° NE
Cosmos 1674 3.0 21:25:24 10° NNW 21:29:09 64° W 21:31:54 17° S
SJ-11-01 4.2 21:27:38 22° SSE 21:30:44 86° ENE 21:35:28 10° NNW
YAOGAN 6 2.9 21:36:25 49° ENE 21:36:25 49° ENE 21:39:55 10° N
Cosmos 1743 Rocket 3.4 21:38:04 10° N 21:42:32 81° E 21:43:51 45° SSE
Cosmos 1500 Rocket 3.4 21:40:01 10° N 21:44:18 61° E 21:44:37 59° ESE
Meteor 1-29 3.6 21:41:09 10° N 21:44:34 57° WNW 21:47:59 10° SSW
Cosmos 1802 Rocket 3.8 21:38:51 10° S 21:44:58 77° E 21:51:09 10° N
BREEZE-M DEB (TANK) 2.7 21:42:49 10° WNW 21:44:40 51° NNW 21:44:40 51° NNW
H-2A R/B 4.2 21:46:29 12° NE 21:46:29 12° NE 21:47:20 10° NNE
Cosmos 1356 Rocket 3.3 21:43:56 10° N 21:47:56 63° ENE 21:47:56 63° ENE
OE (NEXTSAT) 4.4 21:44:34 10° W 21:48:00 79° WNW 21:48:00 79° WNW
CZ-3B DEB 3.3 21:41:08 10° W 21:49:34 45° NNW 21:52:52 16° NE
COSMOS 2487 4.4 21:48:26 10° NW 21:51:29 27° WSW 21:53:15 18° SW
Cosmos 2251 Rocket 3.5 21:47:11 10° NNW 21:52:31 70° ENE 21:53:40 53° SE
SPOT 1/Viking Rocket 4.3 21:56:26 35° ENE 21:56:26 35° ENE 22:00:59 10° N
Cosmos 2061 Rocket 4.1 21:52:06 10° S 21:58:30 80° W 22:04:59 10° N
Cosmos 1626 4.3 21:58:22 10° NNE 21:59:34 17° NNE 21:59:34 17° NNE
Cosmos 1833 Rocket 3.8 21:56:51 10° NW 22:02:03 40° WSW 22:05:39 18° SSW
MetOp-B 4.0 22:03:35 61° ESE 22:04:16 68° ENE 22:09:36 10° N
Cosmos 1470 4.1 22:01:50 10° SSW 22:05:35 39° WNW 22:09:20 10° N
NOAA 11 4.1 22:07:15 63° ESE 22:07:57 71° ENE 22:13:27 10° N
Cosmos 2278 Rocket 4.5 22:05:59 10° WSW 22:10:33 24° NW 22:15:07 10° N
Cosmos 1340 Rocket 4.3 22:07:10 10° NNW 22:10:50 34° W 22:12:09 26° SW
USA 215 3.1 22:08:22 10° NE 22:14:56 77° SE 22:21:28 10° SW
Cosmos 1842 Rocket 3.8 22:18:20 66° W 22:18:26 66° W 22:22:50 10° N
Cosmos 2058 3.7 22:14:38 10° N 22:17:39 46° N 22:17:39 46° N
ATLAS 5 CENTAUR R/B 2.3 22:16:50 10° SW 22:21:32 59° NW 22:26:43 10° NNE
Cosmos 2233 Rocket 4.2 22:23:21 52° ENE 22:23:21 52° ENE 22:28:34 10° NNE
Cosmos 2151 3.5 22:19:42 10° NNW 22:23:14 56° NW 22:23:14 56° NW
USA 245 4.1 22:24:27 76° ESE 22:24:47 80° ENE 22:31:04 10° N
Cosmos 1864 Rocket 4.4 22:24:22 48° S 22:26:20 90° NW 22:32:40 10° N
Cosmos 2082 Rocket 4.4 22:33:37 10° WNW 22:37:29 19° W 22:41:10 11° SW
Lacrosse 5 3.8 22:38:29 10° WNW 22:42:46 27° NNW 22:45:24 18° NNE
SPOT 5 3.4 22:45:02 65° W 22:45:02 65° W 22:50:10 10° NNW
USA 267 3.1 22:48:09 76° ENE 22:48:34 79° NE 22:55:07 10° NW
ARGOS 3.5 22:51:33 62° WNW 22:51:33 62° WNW 22:56:25 10° NNW
H-2A R/B 2.6 22:52:51 54° N 22:52:51 54° N 22:56:55 10° NNW
Terra 3.5 23:04:46 28° N 23:04:46 28° N 23:07:04 10° N
Lacrosse 5 rocket 4.2 23:02:14 10° W 23:02:25 11° W 23:02:25 11° W
Cosmos 2369 Rocket 3.8 23:34:54 29° N 23:34:54 29° N 23:37:38 10° NNE
Cosmos 2227 Rocket 4.3 23:40:57 10° N 23:43:38 19° NNE 23:43:38 19° NNE
